Wind_Speed
2 1 1 1 1 3 5 6 7 7 7 7 7 7 7 8 8 8 8 8 8 8 8 8 8 8 8 8 8 8 7 7 7 7 7 7 7 7 7 7 8 8 8
2 3 3 2 1 2 3 4 5 5 5 5 5 5 5 5 6 6 6 6 7 7 7 7 7 7 7 7 7 6 6 6 6 6 6 6 6 6 6 6 7 7 8
4 4 3 2 2 1 2 2 3 3 3 3 4 4 4 4 4 4 5 5 6 6 6 6 6 6 6 6 5 5 5 5 5 5 5 5 5 4 5 5 6 6 7
5 6 5 4 3 2 1 1 1 2 2 2 3 3 4 4 4 4 4 5 5 5 5 5 5 5 5 5 4 4 3 3 3 4 4 4 4 4 4 5 5 6 6
6 7 7 6 5 4 2 1 0 1 2 3 3 4 4 4 5 5 5 5 5 5 5 5 5 5 4 4 3 2 2 2 1 2 2 2 3 3 3 4 4 5 6
8 8 8 7 6 5 4 3 2 2 3 3 4 4 5 6 6 6 6 6 6 6 6 6 6 6 5 5 4 2 2 1 1 0 0 1 1 2 3 3 4 5 5
11 10 10 9 8 6 5 4 3 3 4 4 5 6 6 7 8 8 8 8 8 8 8 8 7 7 7 6 5 4 4 3 3 2 2 2 2 2 3 3 4 4 5
12 11 10 9 9 7 6 5 4 4 4 5 6 6 7 8 9 10 11 11 11 10 10 10 9 9 8 8 7 6 6 5 5 4 4 4 4 4 4 4 4 5 5
13 12 11 9 9 8 7 6 5 5 5 6 7 8 8 9 10 11 12 12 12 13 13 12 12 10 10 9 8 8 7 7 7 7 6 6 6 6 6 6 6 6 6
14 12 11 10 9 8 8 7 6 6 6 7 8 9 9 10 11 12 13 14 14 14 15 15 14 12 11 10 10 9 9 9 9 9 8 8 8 8 8 8 8 8 8
15 13 11 10 9 9 8 7 6 6 7 8 9 10 10 11 12 13 14 15 15 16 16 16 15 14 13 12 11 11 11 11 11 11 11 10 10 10 10 10 10 10 10
15 13 12 10 10 9 8 8 7 7 8 8 10 11 11 12 13 13 14 15 16 17 17 17 16 15 15 14 13 13 13 13 13 13 13 13 13 12 13 13 13 12 12
15 14 13 12 11 10 10 9 8 8 9 9 11 11 12 13 13 13 14 16 16 16 16 16 16 16 16 15 15 14 14 14 14 15 15 15 15 14 14 15 16 16 16
15 14 14 13 12 11 10 10 9 9 9 11 11 11 12 13 13 14 14 15 16 16 16 16 16 16 16 16 15 15 15 16 16 16 17 17 16 16 16 17 17 18 18
15 14 13 14 13 11 10 10 9 10 11 11 12 12 12 13 14 15 15 14 15 15 15 15 15 16 16 16 16 15 15 16 17 17 18 18 18 19 18 18 18 19 19
15 14 13 13 12 11 10 8 8 9 10 11 11 12 12 13 14 14 15 14 14 14 14 14 15 15 15 15 15 15 15 16 16 17 17 18 19 20 20 20 19 19 20
16 15 14 13 12 11 10 8 8 9 11 11 11 11 12 13 13 13 14 14 14 14 14 14 15 14 15 14 15 15 16 16 16 17 17 18 18 20 20 21 20 21 21
15 15 14 14 12 10 9 8 8 9 10 10 10 11 11 12 12 12 12 12 13 14 14 14 14 15 15 16 16 17 17 18 18 18 19 19 19 19 20 21 21 21 23
15 15 14 12 11 10 8 7 7 7 7 8 9 10 10 10 10 10 11 12 12 13 14 14 15 15 16 16 17 18 18 19 19 19 20 20 20 20 21 22 22 23 24
15 15 13 10 9 7 6 6 5 5 6 7 8 8 8 9 10 10 11 11 12 12 13 14 14 15 16 17 18 18 19 19 20 21 21 21 22 22 22 23 23 24 25
12 12 10 9 6 5 4 4 4 4 5 6 6 7 8 9 9 10 11 11 12 12 13 13 14 15 16 17 18 18 19 20 20 21 21 22 22 23 24 24 25 26 26
11 9 7 7 6 5 4 3 3 4 5 6 6 6 7 7 8 9 10 11 11 12 13 14 15 16 17 17 18 19 20 21 21 22 22 22 23 23 24 25 26 27 28
9 7 7 7 6 5 4 3 2 2 4 4 5 6 7 8 9 9 10 11 12 13 14 15 16 17 18 19 19 20 21 22 23 23 23 24 24 24 25 26 27 28 29
8 8 8 8 6 5 3 2 2 2 3 4 5 6 7 8 8 9 10 12 13 13 14 15 17 18 19 19 20 21 22 23 24 25 26 26 27 27 27 28 28 29 30
8 8 8 8 6 4 3 2 2 2 3 4 5 6 6 7 8 9 11 12 13 14 16 16 17 18 19 20 21 22 23 24 25 26 27 28 28 29 29 30 30 31 32
8 8 7 7 5 4 3 2 2 2 3 4 4 5 6 7 9 10 12 14 15 16 17 18 19 20 21 22 22 23 24 25 26 27 28 30 30 31 31 32 32 33 33
Wind_Direction
173 196 245 205 107 98 96 92 85 79 74 66 56 50 47 45 44 43 40 38 37 37 38 38 38 40 44 46 48 51 55 58 63 69 74 81 88 95 103 108 106 104 103
235 234 234 230 174 110 99 94 88 81 71 62 52 44 37 35 34 33 31 30 30 31 31 32 32 33 35 39 42 45 50 55 60 68 74 84 92 100 109 115 116 113 112
245 240 238 228 202 167 126 99 84 72 57 46 37 30 22 19 18 16 16 17 20 23 23 22 21 23 26 28 32 37 43 50 55 64 73 83 94 106 120 124 127 125 122
247 247 241 230 221 207 177 111 72 52 30 12 4 2 360 358 358 357 354 359 4 7 7 5 4 5 10 15 18 24 30 41 52 62 72 83 94 107 118 128 134 136 132
252 245 237 229 223 214 209 211 259 320 331 335 332 331 329 333 333 336 335 340 345 347 347 345 341 340 338 346 356 2 4 15 37 59 74 93 106 115 121 133 142 144 142
242 237 232 228 226 225 230 235 247 284 300 308 311 311 309 311 313 316 318 321 325 326 325 323 322 320 319 322 325 323 314 308 304 292 159 132 143 146 146 150 155 154 152
242 236 229 227 229 231 236 241 251 271 288 296 300 302 301 302 303 305 306 307 308 308 308 309 309 303 303 303 304 301 293 286 271 257 239 230 211 191 183 179 175 171 167
239 234 228 224 226 229 230 236 247 264 280 292 298 300 299 297 298 299 300 299 300 299 298 299 302 297 293 289 289 291 291 287 275 261 248 240 232 218 209 204 197 192 185
236 228 223 223 226 227 230 237 249 263 280 287 290 293 294 293 294 296 296 293 292 293 292 292 294 293 287 282 281 282 283 281 274 264 255 248 243 235 226 220 214 209 203
234 230 225 227 228 230 237 239 249 266 279 283 288 291 293 293 293 294 295 291 288 288 288 289 289 288 282 277 276 275 277 277 273 264 258 253 247 242 236 230 226 219 215
234 230 224 224 227 231 237 239 252 269 278 282 288 292 294 294 295 295 294 292 290 288 286 286 286 285 280 273 271 271 273 274 271 265 260 256 250 246 241 236 233 227 223
225 222 220 224 230 228 234 240 254 271 278 281 286 290 292 293 295 294 293 292 290 288 287 284 282 284 279 276 272 268 268 270 269 265 260 257 254 252 246 240 235 233 228
229 223 219 227 229 225 230 240 252 266 275 281 286 289 292 295 296 295 293 293 290 287 287 286 282 281 280 279 277 271 268 265 266 265 263 260 257 255 251 245 239 236 231
229 223 221 227 223 224 234 245 253 266 276 283 288 289 290 293 295 296 293 294 290 283 282 286 284 278 280 282 280 275 269 266 265 266 263 260 258 256 254 251 245 239 232
222 222 223 225 219 228 239 248 260 270 276 282 288 292 294 293 294 291 289 293 292 288 286 284 283 279 281 281 280 278 273 267 265 264 263 261 258 256 254 253 251 242 237
221 222 226 216 215 225 239 249 263 274 277 283 287 289 289 291 292 291 289 293 298 293 290 287 282 279 278 279 276 275 274 271 267 262 262 262 260 257 254 253 250 244 242
222 227 224 218 214 223 234 250 266 272 276 283 288 289 290 290 291 293 290 291 294 294 291 289 285 283 281 279 277 276 277 273 269 267 267 267 264 260 255 253 251 248 246
221 216 215 216 217 221 231 248 267 275 278 283 289 292 295 294 293 293 293 292 293 293 295 293 289 287 285 283 282 280 279 276 272 270 268 267 265 262 258 254 253 251 247
208 203 208 211 214 222 228 249 267 278 282 287 293 296 300 300 302 300 298 296 296 298 299 296 293 291 288 286 285 283 281 279 274 272 269 267 265 263 260 256 255 253 248
202 200 201 201 205 217 232 251 268 280 287 293 297 298 303 306 307 306 304 303 303 302 301 300 298 295 292 290 287 285 282 281 277 274 271 268 266 264 261 257 255 252 249
199 195 194 192 201 208 229 245 266 279 289 297 300 303 307 309 310 311 311 309 307 306 306 305 302 300 297 292 290 288 285 282 278 275 273 269 266 264 261 258 256 251 249
189 190 186 193 195 204 212 235 262 286 296 297 302 313 314 317 321 322 320 319 317 313 311 309 306 303 300 297 293 290 287 285 281 277 274 272 268 265 263 260 257 253 250
186 181 178 179 176 181 194 210 249 319 325 314 315 321 321 323 326 329 329 328 325 321 315 311 308 304 301 298 296 293 289 287 284 280 276 273 270 267 263 260 259 255 252
181 177 165 166 168 172 178 210 265 304 323 321 322 323 325 328 330 333 333 331 328 324 321 316 313 309 305 302 299 296 292 289 286 283 279 275 271 268 265 262 260 258 255
171 167 164 169 171 177 190 213 268 295 313 322 323 326 331 334 336 336 334 331 329 327 324 322 318 316 312 308 304 299 295 290 286 283 281 277 273 269 266 264 262 260 258
166 170 173 179 185 183 186 207 251 280 305 320 327 329 330 333 334 332 332 331 329 327 326 324 322 318 314 310 307 302 298 293 289 285 282 279 275 271 268 265 262 260 258
Height
5895 5896 5896 5896 5896 5895 5895 5896 5896 5897 5898 5898 5899 5899 5900 5900 5900 5901 5901 5901 5901 5901 5901 5901 5901 5901 5901 5900 5900 5900 5900 5900 5901 5901 5901 5900 5901 5901 5901 5901 5902 5902 5902
5895 5895 5896 5896 5896 5895 5895 5896 5896 5897 5898 5898 5899 5899 5900 5900 5901 5901 5901 5901 5901 5901 5901 5901 5901 5901 5901 5901 5901 5901 5901 5901 5901 5901 5901 5901 5902 5902 5902 5903 5903 5903 5903
5894 5895 5895 5895 5895 5895 5895 5896 5896 5897 5897 5898 5898 5899 5899 5900 5900 5900 5901 5901 5901 5901 5901 5901 5901 5901 5901 5901 5901 5901 5901 5901 5901 5902 5902 5902 5902 5903 5903 5904 5904 5904 5904
5893 5894 5894 5895 5895 5895 5895 5895 5896 5897 5897 5897 5898 5898 5899 5899 5899 5899 5900 5900 5900 5900 5900 5901 5901 5901 5901 5901 5901 5901 5901 5901 5902 5902 5903 5903 5903 5903 5904 5904 5904 5905 5905
5892 5892 5893 5893 5894 5894 5894 5895 5896 5896 5896 5897 5897 5898 5898 5898 5898 5898 5899 5899 5899 5900 5900 5900 5900 5900 5900 5901 5901 5901 5901 5901 5902 5902 5903 5903 5903 5904 5904 5905 5905 5905 5906
5891 5891 5892 5892 5892 5893 5893 5894 5895 5895 5896 5896 5897 5897 5897 5897 5897 5897 5897 5898 5898 5898 5899 5899 5899 5899 5899 5900 5900 5900 5900 5901 5901 5902 5902 5903 5903 5903 5904 5905 5905 5905 5906
5889 5889 5889 5890 5891 5891 5892 5893 5894 5894 5895 5895 5896 5896 5896 5896 5896 5896 5896 5896 5896 5897 5897 5897 5897 5897 5898 5898 5899 5899 5899 5900 5900 5901 5901 5902 5902 5903 5904 5904 5905 5905 5906
5886 5886 5887 5888 5889 5890 5891 5892 5893 5893 5894 5894 5894 5895 5895 5895 5895 5895 5894 5894 5894 5895 5895 5895 5895 5895 5896 5896 5897 5897 5898 5898 5899 5899 5900 5900 5901 5902 5903 5904 5904 5905 5906
5884 5884 5885 5886 5888 5889 5890 5891 5892 5892 5893 5893 5893 5893 5893 5893 5893 5893 5892 5892 5892 5892 5892 5892 5893 5893 5894 5894 5895 5895 5896 5897 5897 5898 5898 5899 5900 5901 5901 5902 5903 5904 5905
5882 5883 5884 5885 5886 5887 5888 5889 5890 5891 5891 5891 5892 5892 5891 5891 5891 5891 5890 5890 5890 5889 5889 5890 5890 5890 5891 5892 5892 5893 5894 5894 5895 5896 5896 5897 5898 5899 5900 5901 5902 5903 5904
5880 5881 5882 5883 5884 5886 5887 5888 5889 5889 5890 5890 5890 5890 5890 5889 5889 5889 5888 5887 5887 5887 5886 5887 5887 5888 5888 5889 5890 5891 5891 5892 5892 5893 5894 5895 5896 5897 5898 5899 5901 5902 5903
5877 5878 5879 5881 5882 5883 5885 5886 5887 5887 5888 5888 5888 5887 5887 5887 5886 5886 5885 5885 5884 5884 5883 5883 5884 5884 5885 5886 5887 5888 5889 5889 5890 5890 5891 5892 5893 5894 5896 5897 5898 5900 5901
5874 5875 5877 5878 5880 5881 5883 5884 5884 5885 5885 5885 5885 5885 5885 5884 5884 5883 5883 5882 5881 5881 5881 5881 5880 5881 5882 5883 5883 5884 5885 5886 5887 5887 5888 5889 5890 5891 5892 5894 5895 5896 5898
5871 5873 5874 5875 5877 5879 5880 5881 5882 5882 5883 5883 5883 5882 5882 5882 5881 5881 5880 5879 5879 5878 5878 5878 5878 5878 5879 5879 5880 5881 5882 5882 5883 5884 5885 5885 5886 5887 5889 5890 5891 5893 5895
5868 5870 5872 5873 5875 5876 5878 5879 5879 5880 5881 5881 5880 5880 5879 5879 5879 5879 5878 5877 5876 5876 5875 5875 5875 5875 5875 5876 5876 5877 5878 5879 5879 5880 5881 5881 5882 5883 5884 5886 5887 5889 5891
5866 5868 5869 5870 5872 5874 5875 5876 5877 5878 5878 5878 5878 5877 5877 5876 5876 5876 5875 5875 5874 5873 5873 5873 5873 5873 5873 5873 5873 5873 5874 5875 5875 5876 5877 5877 5878 5879 5880 5882 5883 5885 5886
5861 5864 5866 5868 5870 5871 5873 5874 5875 5876 5876 5875 5875 5875 5874 5874 5874 5873 5873 5872 5872 5871 5870 5870 5870 5870 5870 5870 5870 5870 5870 5871 5872 5872 5873 5873 5874 5875 5876 5877 5878 5880 5882
5858 5860 5863 5866 5867 5869 5871 5873 5873 5873 5873 5873 5873 5872 5872 5872 5871 5871 5871 5870 5869 5869 5868 5868 5868 5867 5867 5867 5867 5867 5867 5867 5867 5868 5869 5869 5870 5871 5872 5873 5874 5875 5877
5855 5858 5861 5864 5865 5867 5870 5871 5872 5872 5871 5871 5871 5871 5870 5870 5869 5869 5868 5868 5867 5866 5866 5865 5865 5864 5864 5864 5863 5863 5863 5863 5863 5864 5864 5865 5866 5867 5867 5868 5869 5871 5872
5852 5856 5859 5861 5863 5865 5868 5869 5870 5870 5869 5869 5869 5869 5868 5868 5868 5867 5866 5866 5865 5864 5863 5862 5862 5861 5861 5860 5860 5859 5859 5859 5859 5859 5860 5860 5861 5862 5862 5863 5864 5866 5867
5851 5854 5856 5860 5862 5864 5866 5867 5868 5868 5868 5868 5867 5867 5867 5866 5866 5865 5864 5863 5862 5862 5861 5860 5859 5858 5858 5857 5856 5856 5855 5855 5854 5854 5855 5855 5856 5856 5857 5858 5859 5860 5862
5851 5854 5856 5858 5861 5862 5864 5865 5866 5866 5866 5866 5866 5866 5865 5865 5864 5863 5862 5861 5860 5859 5858 5857 5856 5855 5854 5853 5852 5851 5851 5851 5850 5850 5849 5850 5850 5850 5851 5852 5853 5854 5856
5850 5853 5854 5857 5859 5860 5862 5863 5864 5864 5864 5865 5864 5864 5863 5863 5862 5861 5860 5859 5858 5856 5855 5854 5853 5852 5850 5849 5848 5847 5846 5845 5844 5844 5844 5844 5844 5844 5845 5845 5846 5847 5849
5850 5852 5853 5855 5857 5859 5860 5862 5863 5863 5863 5863 5863 5862 5862 5861 5860 5859 5858 5857 5855 5854 5852 5851 5849 5848 5846 5845 5843 5842 5841 5840 5839 5838 5838 5837 5837 5837 5838 5838 5839 5840 5841
5849 5851 5853 5854 5856 5858 5859 5861 5861 5862 5862 5862 5861 5861 5860 5859 5858 5857 5856 5855 5853 5851 5849 5847 5846 5844 5842 5840 5838 5837 5835 5834 5832 5832 5830 5830 5830 5830 5830 5831 5831 5832 5833
5849 5851 5853 5854 5856 5857 5858 5859 5860 5860 5861 5860 5860 5859 5858 5857 5856 5855 5854 5852 5850 5848 5846 5844 5842 5840 5837 5835 5833 5831 5829 5828 5826 5825 5823 5822 5822 5822 5822 5822 5823 5823 5824